Regional Weather Roundup
Issued by NWS

Home | Current Version | Previous Version | Text Only | Print | Product List | Glossary On
Versions: 1 2 3 4 5 6 7 8 9 10 11 12 13 14 15 16 17 18 19 20 21 22 23 24 25 26 27 28 29 30 31 32 33 34 35 36 37 38 39 40 41 42 43 44 45 46 47 48 49 50
641
ASUS44 KLIX 210001
RWRLA
LOUISIANA WEATHER ROUNDUP
NATIONAL WEATHER SERVICE NEW ORLEANS LA
700 PM CDT WED AUG 20 2014

NOTE: "FAIR" INDICATES FEW OR NO CLOUDS BELOW 12,000 FEET WITH NO
      SIGNIFICANT WEATHER AND/OR OBSTRUCTIONS TO VISIBILITY.
      SKY/WX - SKY CONDITION AND SIGNIFICANT WEATHER.
      TMP - AIR TEMPERATURE.    DP   - DEWPOINT TEMPERATURE.
      RH  - RELATIVE HUMIDITY.  PRES - PRESSURE.
      HX  - HEAT INDEX.         WCI  - WIND CHILL INDEX.

*  THESE STATIONS ARE NOT NWS OR FAA STATIONS AND ARE NOT UNDER
   NWS QUALITY CONTROL.

LAZ040-048-061>063-065-066-069-210100-
SOUTHEAST LOUISIANA

CITY           SKY/WX    TMP DP  RH WIND       PRES   REMARKS
N.O. AUDUBON   NOT AVBL
N.O. INTL ARPT CLOUDY    82  73  74 SW6       30.05S
6HR MIN TEMP:  82; 6HR MAX TEMP:  92; 6HR PCP: TRACE;

N.O. LAKEFRONT CLOUDY    85  74  69 S8        30.05F
6HR MIN TEMP:  78; 6HR MAX TEMP:  91; 6HR PCP:  0.22;

N.O. DOWNTOWN* FAIR      86  72  62 S3        30.06S
6HR MIN TEMP:  82; 6HR MAX TEMP:  97; 6HR PCP:  0.01;

SLIDELL        MOCLDY    87  73  62 S6        30.05R
6HR MIN TEMP:  86; 6HR MAX TEMP:  94;

BATON ROUGE    CLOUDY    80  74  81 CALM      30.05S
6HR MIN TEMP:  80; 6HR MAX TEMP:  94; 6HR PCP:  0.10;

BOOTHVILLE     PTCLDY    86  76  71 SW8       30.07R HX  96
6HR MIN TEMP:  86; 6HR MAX TEMP:  91;

BELLE CHASSE   CLOUDY    84  76  76 CALM      30.05S
6HR MIN TEMP:  83; 6HR MAX TEMP:  92;

BOGALUSA*      FAIR      87  74  67 SW8       30.06R HX  95
6HR MIN TEMP:  87; 6HR MAX TEMP:  96;

GALLIANO*      NOT AVBL
NEW ROADS*     FAIR      77  74  91 CALM      30.05F
6HR MIN TEMP:  77; 6HR MAX TEMP:  92;

GONZALES*      FAIR      76  76 100 CALM      30.03F
6HR MIN TEMP:  75; 6HR MAX TEMP:  92; 6HR PCP:  0.03;

HAMMOND*       NOT AVBL
HOUMA*         NOT AVBL
PORT FOURCHON* CLEAR     86  75  70 S9        30.07S HX  95

$$

LAZ041-044-053-054-210100-
SOUTHWEST LOUISIANA

CITY           SKY/WX    TMP DP  RH WIND       PRES   REMARKS
LAKE CHARLES   CLOUDY    85  78  80 SE9       30.03R HX  96
6HR MIN TEMP:  76; 6HR MAX TEMP:  92; 6HR PCP:  0.07;

LAFAYETTE      CLOUDY    79  75  87 CALM      30.04F
6HR MIN TEMP:  77; 6HR MAX TEMP:  92; 6HR PCP:  0.49;

PATTERSON      CLOUDY   N/A N/A N/A MISG        N/A  THUNDER
SALT POINT       N/A     86  76  71 CALM      30.05S HX  96
6HR MIN TEMP:  86; 6HR MAX TEMP:  94; 6HR PCP:  0.04;

NEW IBERIA     CLOUDY    83  74  74 S3        30.04F
6HR MIN TEMP:  81; 6HR MAX TEMP:  95;

CHENAULT AIRPK PTCLDY    84  77  79 SE6       30.05R

$$

LAZ027-028-210100-
CENTRAL LOUISIANA

CITY           SKY/WX    TMP DP  RH WIND       PRES   REMARKS
FORT POLK        N/A     75  73  94 SE5       30.03F THUNDER
ALEXANDRIA INT CLOUDY    80  71  74 SW5       30.02S
6HR MIN TEMP:  80; 6HR MAX TEMP:  96;

ALEXANDRIA     CLOUDY    81  73  76 SW3       30.04S
6HR MIN TEMP:  81; 6HR MAX TEMP:  95; 6HR PCP: TRACE;


$$

LAZ001-002-210100-
NORTHWEST LOUISIANA

CITY           SKY/WX    TMP DP  RH WIND       PRES   REMARKS
SHREVEPORT     MOSUNNY   92  70  48 S8        29.97S HX  97
6HR MIN TEMP:  91; 6HR MAX TEMP:  96;

BARKSDALE AFB  MOSUNNY   91  71  52 SE9       29.98S HX  97
6HR MIN TEMP:  90; 6HR MAX TEMP:  96;

DTN SHREVEPORT SUNNY     91  70  49 SE8       29.97F HX  96
6HR MIN TEMP:  91; 6HR MAX TEMP:  95;


$$

LAZ014-016-210100-
NORTHEAST LOUISIANA

CITY           SKY/WX    TMP DP  RH WIND       PRES   REMARKS
MONROE         CLEAR     89  72  56 S6        30.02S HX  96
6HR MIN TEMP:  88; 6HR MAX TEMP:  93;

TALLULAH       CLEAR     87  72  60 S5        30.02S
6HR MIN TEMP:  87; 6HR MAX TEMP:  93;


$$




USA.gov is the U.S. government's official web portal to all federal, state and local government web resources and services.